Location: Colonia Mina de C?rbuni
(46.1667°N, 22.7167°E)
Time: 15:57:41
(UTC+00:00)

S-56A Canister/Altair - Pass Details

Date: 20 April 2024
Orbit: 638 x 2488 km, 38.9° (Epoch: 19 May)

Event Time Altitude Azimuth Distance (km) Brightness Sun altitude
Rises 18:58:23 0° 269° (W) 3,780 12.0 -15.4°
Reaches altitude 10° 19:00:47 10° 263° (W) 3,027 11.2 -15.7°
Maximum altitude 19:07:57 45° 193° (SSW) 1,932 9.3 -16.7°
Enters shadow 19:14:20 23° 135° (SE) 3,209 10.0 -17.5°
